Flag for U.S.A. Weather past 2 weeks in Paramus, New Jersey, U.S.A.

Now
82 °F

Passing clouds.


Feels Like: 85 °F
Forecast: 71 / 81 °F
Wind: 8 mph from Southwest

Location: Teterboro Airport

Current Time: Jul 23, 2014 at 10:56:24 PM

Latest Report: Jul 23, 2014 at 9:51 PM


Visibility: 10 mi

Pressure: 29.82 "Hg

Humidity: 65%

Dew point: 69 °F

Location of ParamusLocation

Historic Weather in Paramus — Graph

°F

Paramus temperature yesterday

Maximum temperature yesterday: 87 °F (at 12:51 PM)
Minimum temperature yesterday: 69 °F (at 3:51 AM)
Average temperature yesterday: 78 °F

Past Weeks' High & Low Weather Summary

 TemperatureHumidityPressure
High96 °F (Jul 23, 4:51 PM)89% (Jul 14, 4:00 AM)30.24 "Hg (Jul 14, 4:00 AM)
Low64 °F (Jul 18, 5:51 AM)28% (Jul 18, 3:51 PM)29.65 "Hg (Jul 8, 9:51 PM)
Average78 °F60%30.02 "Hg
* Reported Jul 8 9:51 PM — Jul 23 9:51 PM, Paramus, Weather by CustomWeather, © 2014

Note: Actual official high and low records may vary slightly from our data, if they occured in-between our weather recording intervals... More about our weather records

Advertising

Paramus weather history for previous 24 hours

 ConditionsComfort  
Time TempWeatherWind HumidityBarometerVisibility
9:51 PM
Jul 23
82 °FPassing clouds.8 mph65%29.82 "Hg10 mi
8:51 PM88 °FThunderstorms. Broken clouds.15 mph54%29.79 "Hg10 mi
7:51 PM90 °FSunny.13 mph50%29.76 "Hg10 mi
6:51 PM89 °FScattered clouds.7 mph55%29.75 "Hg10 mi
5:51 PM96 °FScattered clouds.12 mph44%29.75 "Hg10 mi
4:51 PM96 °FScattered clouds.12 mph41%29.77 "Hg10 mi
3:51 PM93 °FScattered clouds.14 mph49%29.79 "Hg9 mi
2:51 PM90 °FBroken clouds.14 mph54%29.83 "Hg10 mi
1:51 PM91 °FBroken clouds.12 mph52%29.85 "Hg10 mi
12:51 PM90 °FPassing clouds.10 mph54%29.86 "Hg10 mi
11:51 AM88 °FSunny.10 mph54%29.89 "Hg10 mi
10:51 AM85 °FSunny.12 mph59%29.92 "Hg10 mi
9:51 AM82 °FPartly sunny.6 mph60%29.94 "Hg9 mi
8:51 AM80 °FPartly sunny.7 mph64%29.97 "Hg10 mi
6:51 AM74 °FSunny.7 mph69%29.97 "Hg10 mi
5:51 AM74 °FPassing clouds.8 mph69%29.96 "Hg10 mi
4:51 AM74 °FPassing clouds.6 mph69%29.98 "Hg10 mi
12:51 AM78 °FClear.9 mph60%30.02 "Hg10 mi
11:51 PM
Jul 22
79 °FClear.12 mph60%30.03 "Hg10 mi
10:51 PM81 °FClear.13 mph58%30.04 "Hg10 mi
Weather by CustomWeather, © 2014

See weather overviewHow to use our weather pages